COSMOS 1275 DEB, 17632

Orbit data source: Space-Track

COSMOS 1275 DEB, 17632 is space debris in LEO originally from a launch on Thu, 04 Jun 1981 UTC launched from the Plesetsk Missile And Space Complex (PKMTR). Debris objects in space refer to the collection of defunct objects orbiting the Earth. Examples of debris include non-operational satellites, rocket bodies, and fragments generated from explosions, collisions, or faulty payload assembly.

Loading next visibility...
Identifier
17632, 1981-053LB
Orbit
LEO
Country
Flag of CISCIS
Related business
Manufacturer
Unknown
Mission
Spacecraft
Bus & Motor
Unknown
Mass
Unknown
Launch date (UTC)
1981-06-04 (45 years ago)
Launch vehicle
Unknown
Launch site
Plesetsk Missile And Space Complex (PKMTR)
Object type
Payload
Rocket body
Debris
Shape & HBR
Unknown shape, 0.1 m
Radar Cross Section
Small (<0.1 m²)

Expand to show TLE details & history
Last TLE update: 21 hours ago

TLE from 21 hours ago
0 COSMOS 1275 DEB
1 17632U 81053LB  26149.62908259  .00000505  00000-0  58835-3 0  9991
2 17632  83.0854 219.2886 0139481 283.1108 231.5136 13.63054749 33159
Epoch: 2026-05-29T15:05Z
TLE epoch observation values (Epoch: 2026-05-29T15:05:52.735Z)
Latitude
26.43804°
Longitude
-77.77719°
Altitude
1,092.954 km
Speed
7.276 km/s
True Right ascension
02h 23m 23s
True Declination
26° 18' 26"
Sunlit
Object was in daylight at epoch
Visualization orbit readout
Latitude
Unknown
Longitude
Unknown
Altitude
Unknown
Speed
Unknown
Apparent Right ascension
Unknown
Apparent Declination
Unknown
Sunlit
N/A
Visualization observer readout
Local Sidereal Time
21:57:39
Azimuth
Unknown
Elevation
Unknown
Doppler factor
Unknown
Orbital elements
Apogee altitude
1,124.985 km
Perigee altitude
918.556 km
Semi-major axis
7,399.907 km
Eccentricity
0.01395
Inclination
83.0854°
RAAN
219.2886°
Arg. of periapsis
283.1108°
True anomaly
230.27603°
Mean anomaly
231.5136°
Eccentric anomaly
230.89347°
Mean motion
3.4096 °/min
Orbital period
105.58 mins
BSTAR
0.00058835
Loading maneuver chart data...
Computing Atmospheric mass density...
Loading historical data...
Loading historical data...
Loading historical data...
Loading historical data...
Loading historical data...
Loading historical data...
Loading historical data...

Documentation

Showing up to 5 results
|